STARLINK-11237 [DTC]

Last updated on Tue Oct 01 2024 00:02:04 GMT+0000 (Coordinated Universal Time)

1 60934U 24155L 24274.11944545 .00005432 00000+0 37192-4 0 9990 2 60934 53.1527 52.2784 0001951 96.3558 263.7685 15.76717163 5867
UTC large
Height (km)
Speed (km/s)
/
Latitude / Longitude
Inclination (degrees)
Orbital Period (minutes)
Azimuth
Elevation
Range (km)
Doppler Factor

Next 0 passes for location: London (51.5072 / 0.1276)

Sorry there are no passes over London.